Voltar ao catálogo

STARLINK-36797

AtivoComunicaçõesSSO
NORAD 67815·PAYLOAD·🇺🇸 United States

Lançado Feb 15, 2026 de Vandenberg Space Force Base

Loading…

Próximas Passagens (próximas 24 horas)

TLE

AtualizadoSource: CelesTrak SupGP

Época: Sep 14, 2026, 20:56 UTC

1 67815C 26032U   26257.87270833  .00085987  00000+0  26701-2 0  2571
2 67815  97.2856  84.3576 0001574  92.7215 243.5930 15.33385642    19

Acompanhe STARLINK-36797 em tempo real com AllMySat

Download on the App Store